Regional Weather Roundup
Issued by NWS

Home | Current Version | Previous Version | Text Only | Print | Product List | Glossary On
Versions: 1 2 3 4 5 6 7 8 9 10 11 12 13 14 15 16 17 18 19 20 21 22 23 24 25 26 27 28 29 30 31 32 33 34 35 36 37 38 39 40 41 42 43 44 45 46 47 48 49 50
000
ASUS43 KLMK 300410
RWRKY
KENTUCKY REGIONAL WEATHER ROUNDUP
NATIONAL WEATHER SERVICE LOUISVILLE KY
1200 AM EDT SUN APR 30 2017

NOTE "FAIR" INDICATES FEW OR NO CLOUDS BELOW 12,000 FEET
WITH NO SIGNIFICANT WEATHER AND/OR OBSTRUCTIONS TO VISIBILITY.

KYZ001>023-026-027-061>063-070>075-300500-
WESTERN AND SOUTH CENTRAL KENTUCKY

CITY           SKY/WX    TMP DP  RH WIND       PRES   REMARKS
PADUCAH        TSTM      66  63  90 W8        29.96R FOG
HENDERSON        N/A    N/A N/A N/A MISG        N/A
OWENSBORO      MOCLDY    74  65  73 W18       29.93R
HOPKINSVILLE   CLEAR     77  65  67 S8        29.92F
BOWLING GREEN  PTCLDY    76  66  71 S5        29.96R
GLASGOW        CLEAR     72  64  76 S5        29.98R
$$

KYZ024-025-028>034-038-045-046-053-300500-
NORTH CENTRAL KENTUCKY

CITY           SKY/WX    TMP DP  RH WIND       PRES   REMARKS
LOUISVILLE/SDF MOCLDY    78  66  66 S9        29.93S
LOUISVILLE/LOU PTCLDY    77  68  73 S3        29.93F
FORT KNOX      PTCLDY    75  65  70 S8        29.92F
$$

KYZ035>037-039>044-047>052-055>060-089>105-300500-
NORTHEAST KENTUCKY

CITY           SKY/WX    TMP DP  RH WIND       PRES   REMARKS
LEXINGTON      CLEAR     76  61  59 S12       29.99S
COVINGTON      CLOUDY    73  67  81 S7        29.94F
FRANKFORT      CLEAR     74  65  73 S8        29.95S
$$

KYZ054-064>069-076>088-106>120-300500-
SOUTHEAST KENTUCKY

CITY           SKY/WX    TMP DP  RH WIND       PRES   REMARKS
JACKSON        CLEAR     75  63  66 SE5       30.04F
LONDON         CLOUDY    70  62  76 CALM      30.04S
SOMERSET       CLEAR     75  61  60 CALM      30.03S
MIDDLESBORO    CLOUDY    78  62  58 SW5       30.07R
MONTICELLO     CLOUDY    78  65  63 S8G25     30.03R
$$





USA.gov is the U.S. government's official web portal to all federal, state and local government web resources and services.